| time (UTC) | temp F | wind direction | speed MPH | gust MPH | rain 1hr in | rain 24hr in | rain mn in | humidity % | barometer mb |
| 20260509053032 | 54 | 160 | 0.0 | 1.0 | 0.00 | 0.00 | 0.00 | 69 | 1013.3 |
| 20260509051557 | 54 | 169 | 0.0 | 0.0 | 0.00 | 0.00 | 0.00 | 71 | 1013.2 |
| 20260509050003 | 53 | 169 | 0.0 | 0.0 | 0.00 | 0.00 | 0.00 | 70 | 1013.3 |
| 20260509044514 | 54 | 169 | 0.0 | 0.0 | 0.00 | 0.00 | 0.00 | 70 | 1013.1 |
| 20260509043027 | 54 | 169 | 0.0 | 0.0 | 0.00 | 0.00 | 0.00 | 69 | 1013.1 |
| 20260509041536 | 54 | 169 | 0.0 | 0.0 | 0.00 | 0.00 | 0.00 | 68 | 1013.1 |
| 20260509040335 | 55 | 169 | 0.0 | 0.0 | 0.00 | 0.00 | 0.00 | 66 | 1013.0 |
| 20260509040019 | 54 | 169 | 0.0 | 0.0 | 0.00 | 0.00 | 0.00 | 66 | 1013.1 |
| 20260509034540 | 55 | 169 | 0.0 | 0.0 | 0.00 | 0.00 | 0.00 | 65 | 1013.2 |
| 20260509033054 | 55 | 169 | 0.0 | 0.0 | 0.00 | 0.00 | 0.00 | 65 | 1013.3 |
| 20260509031604 | 56 | 170 | 0.0 | 0.0 | 0.00 | 0.00 | 0.00 | 64 | 1013.3 |
| 20260509030008 | 57 | 170 | 0.0 | 0.0 | 0.00 | 0.00 | 0.00 | 62 | 1013.3 |
| 20260509024519 | 57 | 170 | 0.0 | 1.0 | 0.00 | 0.00 | 0.00 | 61 | 1013.4 |
| 20260509023031 | 57 | 145 | 0.0 | 3.0 | 0.00 | 0.00 | 0.00 | 60 | 1013.4 |
| 20260509021536 | 57 | 122 | 1.0 | 4.0 | 0.00 | 0.00 | 0.00 | 59 | 1013.3 |
| 20260509020307 | 57 | 174 | 1.0 | 4.0 | 0.00 | 0.00 | 0.00 | 59 | 1013.3 |
| 20260509020049 | 57 | 167 | 1.0 | 4.0 | 0.00 | 0.00 | 0.00 | 59 | 1013.3 |
| 20260509014601 | 57 | 149 | 1.0 | 6.0 | 0.00 | 0.00 | 0.00 | 58 | 1013.0 |
| 20260509013034 | 58 | 179 | 0.0 | 1.0 | 0.00 | 0.00 | 0.00 | 56 | 1012.9 |
| 20260509011536 | 58 | 17 | 0.0 | 1.0 | 0.00 | 0.00 | 0.00 | 57 | 1012.7 |
| 20260509010054 | 58 | 1 | 0.0 | 1.0 | 0.00 | 0.00 | 0.00 | 56 | 1012.4 |
| 20260509004505 | 58 | 26 | 0.0 | 1.0 | 0.00 | 0.00 | 0.00 | 55 | 1012.1 |
| 20260509003023 | 59 | 41 | 0.0 | 1.0 | 0.00 | 0.00 | 0.00 | 54 | 1012.0 |
| 20260509001545 | 59 | 337 | 0.0 | 5.0 | 0.00 | 0.00 | 0.00 | 54 | 1011.8 |
| 20260509000259 | 60 | 23 | 1.0 | 7.0 | 0.00 | 0.00 | 0.00 | 52 | 1011.9 |
| 20260509000044 | 59 | 21 | 2.0 | 7.0 | 0.00 | 0.00 | 0.00 | 52 | 1011.9 |
| 20260508234505 | 60 | 4 | 0.0 | 3.0 | 0.00 | 0.00 | 0.00 | 52 | 1011.9 |
| 20260508233019 | 60 | 22 | 0.0 | 3.0 | 0.00 | 0.00 | 0.00 | 50 | 1011.8 |
| 20260508231547 | 61 | 89 | 0.0 | 4.0 | 0.00 | 0.00 | 0.00 | 48 | 1011.5 |
| 20260508230056 | 61 | 2 | 1.0 | 4.0 | 0.00 | 0.00 | 0.00 | 48 | 1011.5 |
| 20260508224605 | 61 | 352 | 1.0 | 5.0 | 0.00 | 0.00 | 0.00 | 47 | 1011.4 |
| 20260508223023 | 62 | 36 | 1.0 | 7.0 | 0.00 | 0.00 | 0.00 | 44 | 1011.4 |
| 20260508221520 | 63 | 50 | 1.0 | 6.0 | 0.00 | 0.00 | 0.00 | 43 | 1011.4 |
| 20260508220305 | 65 | 296 | 2.0 | 11.0 | 0.00 | 0.00 | 0.00 | 41 | 1011.4 |
| 20260508220014 | 64 | 354 | 1.0 | 11.0 | 0.00 | 0.00 | 0.00 | 42 | 1011.4 |
| 20260508214532 | 64 | 281 | 0.0 | 6.0 | 0.00 | 0.00 | 0.00 | 42 | 1011.3 |
| 20260508213052 | 65 | 291 | 4.0 | 10.0 | 0.00 | 0.00 | 0.00 | 39 | 1011.4 |
| 20260508211549 | 64 | 221 | 3.0 | 6.0 | 0.00 | 0.00 | 0.00 | 40 | 1011.4 |
| 20260508210056 | 63 | 341 | 2.0 | 12.0 | 0.00 | 0.00 | 0.00 | 41 | 1011.6 |
| 20260508204519 | 63 | 287 | 1.0 | 7.0 | 0.00 | 0.00 | 0.00 | 40 | 1011.5 |
| 20260508203029 | 62 | 314 | 2.0 | 8.0 | 0.00 | 0.00 | 0.00 | 40 | 1011.7 |
| 20260508201541 | 63 | 276 | 1.0 | 9.0 | 0.00 | 0.00 | 0.00 | 39 | 1011.5 |
| 20260508200302 | 64 | 231 | 2.0 | 11.0 | 0.00 | 0.00 | 0.00 | 38 | 1011.4 |
| 20260508200048 | 63 | 201 | 4.0 | 13.0 | 0.00 | 0.00 | 0.00 | 37 | 1011.4 |
| 20260508194558 | 65 | 257 | 3.0 | 10.0 | 0.00 | 0.00 | 0.00 | 36 | 1011.3 |
| 20260508193135 | 66 | 210 | 2.0 | 11.0 | 0.00 | 0.00 | 0.00 | 37 | 1011.2 |
| 20260508191531 | 65 | 223 | 2.0 | 9.0 | 0.00 | 0.00 | 0.00 | 38 | 1011.4 |
| 20260508190045 | 64 | 311 | 3.0 | 12.0 | 0.00 | 0.00 | 0.00 | 37 | 1011.7 |
| 20260508184622 | 63 | 39 | 2.0 | 11.0 | 0.00 | 0.00 | 0.00 | 38 | 1011.7 |
| 20260508183007 | 64 | 237 | 4.0 | 11.0 | 0.00 | 0.00 | 0.00 | 36 | 1011.9 |
| 20260508181527 | 64 | 143 | 4.0 | 11.0 | 0.00 | 0.00 | 0.00 | 37 | 1011.8 |
| 20260508180317 | 63 | 234 | 5.0 | 13.0 | 0.00 | 0.00 | 0.00 | 38 | 1012.0 |
| 20260508180028 | 62 | 18 | 4.0 | 11.0 | 0.00 | 0.00 | 0.00 | 39 | 1012.1 |
| 20260508174556 | 64 | 215 | 4.0 | 11.0 | 0.00 | 0.00 | 0.00 | 37 | 1012.2 |
| 20260508173123 | 64 | 285 | 2.0 | 13.0 | 0.00 | 0.00 | 0.00 | 39 | 1012.2 |
| 20260508171512 | 63 | 224 | 6.0 | 15.0 | 0.00 | 0.00 | 0.00 | 38 | 1012.4 |
| 20260508170016 | 63 | 217 | 3.0 | 12.0 | 0.00 | 0.00 | 0.00 | 38 | 1012.4 |
| 20260508164533 | 62 | 188 | 4.0 | 14.0 | 0.00 | 0.00 | 0.00 | 40 | 1012.6 |
| 20260508163039 | 62 | 16 | 4.0 | 16.0 | 0.00 | 0.00 | 0.00 | 39 | 1012.8 |
| 20260508161601 | 61 | 241 | 5.0 | 12.0 | 0.00 | 0.00 | 0.00 | 37 | 1012.9 |
| 20260508160301 | 62 | 247 | 6.0 | 13.0 | 0.00 | 0.00 | 0.00 | 38 | 1013.1 |
| 20260508160049 | 61 | 235 | 4.0 | 12.0 | 0.00 | 0.00 | 0.00 | 38 | 1013.0 |
| 20260508154507 | 61 | 226 | 5.0 | 16.0 | 0.00 | 0.00 | 0.00 | 37 | 1013.0 |
| 20260508153034 | 61 | 222 | 4.0 | 12.0 | 0.00 | 0.00 | 0.00 | 38 | 1013.1 |
| 20260508151542 | 61 | 243 | 4.0 | 9.0 | 0.00 | 0.00 | 0.00 | 37 | 1013.1 |
| 20260508150043 | 61 | 231 | 4.0 | 9.0 | 0.00 | 0.00 | 0.00 | 40 | 1013.0 |
| 20260508144600 | 60 | 199 | 3.0 | 8.0 | 0.00 | 0.00 | 0.00 | 42 | 1012.9 |
| 20260508143004 | 60 | 101 | 1.0 | 7.0 | 0.00 | 0.00 | 0.00 | 40 | 1013.1 |
| 20260508141524 | 59 | 305 | 3.0 | 8.0 | 0.00 | 0.00 | 0.00 | 41 | 1013.3 |
| 20260508140323 | 58 | 58 | 3.0 | 8.0 | 0.00 | 0.00 | 0.00 | 44 | 1013.3 |
| 20260508140026 | 58 | 332 | 1.0 | 8.0 | 0.00 | 0.00 | 0.00 | 46 | 1013.4 |
| 20260508134536 | 57 | 208 | 1.0 | 8.0 | 0.00 | 0.00 | 0.00 | 48 | 1013.5 |
| 20260508133102 | 56 | 200 | 2.0 | 7.0 | 0.00 | 0.00 | 0.00 | 48 | 1013.4 |
| 20260508131553 | 55 | 274 | 3.0 | 8.0 | 0.00 | 0.00 | 0.00 | 50 | 1013.5 |
| 20260508130017 | 54 | 315 | 2.0 | 6.0 | 0.00 | 0.00 | 0.00 | 55 | 1013.4 |
| 20260508124533 | 54 | 262 | 2.0 | 6.0 | 0.00 | 0.00 | 0.00 | 56 | 1013.4 |
| 20260508123039 | 53 | 6 | 2.0 | 8.0 | 0.00 | 0.00 | 0.00 | 58 | 1013.4 |
| 20260508121547 | 52 | 310 | 0.0 | 10.0 | 0.00 | 0.00 | 0.00 | 62 | 1013.5 |
| 20260508120306 | 52 | 218 | 3.0 | 7.0 | 0.00 | 0.00 | 0.00 | 62 | 1013.7 |
| 20260508120055 | 52 | 315 | 1.0 | 10.0 | 0.00 | 0.00 | 0.00 | 63 | 1013.6 |
| 20260508114503 | 50 | 278 | 0.0 | 4.0 | 0.00 | 0.00 | 0.00 | 69 | 1013.6 |
| 20260508113015 | 49 | 224 | 1.0 | 3.0 | 0.00 | 0.00 | 0.00 | 72 | 1013.4 |
| 20260508111523 | 48 | 330 | 0.0 | 3.0 | 0.00 | 0.00 | 0.00 | 73 | 1013.3 |
| 20260508110041 | 47 | 238 | 0.0 | 2.0 | 0.00 | 0.00 | 0.00 | 74 | 1013.1 |
| 20260508104559 | 47 | 238 | 0.0 | 2.0 | 0.00 | 0.00 | 0.00 | 74 | 1012.9 |
| 20260508103058 | 46 | 221 | 0.0 | 1.0 | 0.00 | 0.00 | 0.00 | 74 | 1012.7 |
| 20260508101557 | 46 | 232 | 0.0 | 2.0 | 0.00 | 0.00 | 0.00 | 73 | 1012.6 |
| 20260508100317 | 47 | 243 | 0.0 | 1.0 | 0.00 | 0.00 | 0.00 | 73 | 1012.5 |
| 20260508100055 | 46 | 283 | 0.0 | 1.0 | 0.00 | 0.01 | 0.00 | 73 | 1012.6 |
| 20260508094502 | 47 | 254 | 0.0 | 1.0 | 0.00 | 0.01 | 0.00 | 71 | 1012.5 |
| 20260508093012 | 48 | 321 | 0.0 | 3.0 | 0.00 | 0.01 | 0.00 | 70 | 1012.4 |
| 20260508091540 | 48 | 323 | 0.0 | 4.0 | 0.00 | 0.01 | 0.00 | 69 | 1012.2 |
| 20260508090057 | 48 | 89 | 0.0 | 4.0 | 0.00 | 0.03 | 0.00 | 69 | 1011.7 |
| 20260508084547 | 49 | 49 | 1.0 | 6.0 | 0.00 | 0.03 | 0.00 | 69 | 1012.0 |
| 20260508083009 | 49 | 292 | 0.0 | 9.0 | 0.00 | 0.03 | 0.00 | 68 | 1012.0 |
| 20260508081523 | 49 | 285 | 2.0 | 9.0 | 0.00 | 0.03 | 0.00 | 66 | 1012.1 |
| 20260508080309 | 50 | 319 | 2.0 | 13.0 | 0.00 | 0.03 | 0.00 | 65 | 1012.0 |
| 20260508080037 | 49 | 307 | 4.0 | 13.0 | 0.00 | 0.07 | 0.00 | 65 | 1011.8 |
| 20260508074548 | 50 | 161 | 2.0 | 10.0 | 0.00 | 0.07 | 0.00 | 63 | 1011.2 |
| 20260508073058 | 50 | 352 | 4.0 | 13.0 | 0.00 | 0.07 | 0.00 | 59 | 1010.8 |
| 20260508071515 | 51 | 26 | 4.0 | 12.0 | 0.00 | 0.07 | 0.00 | 59 | 1010.9 |
| 20260508070029 | 51 | 10 | 3.0 | 9.0 | 0.00 | 0.20 | 0.00 | 59 | 1011.0 |
| 20260508064542 | 52 | 350 | 3.0 | 10.0 | 0.00 | 0.20 | 0.00 | 60 | 1011.1 |
| 20260508063118 | 52 | 4 | 2.0 | 9.0 | 0.00 | 0.20 | 0.00 | 59 | 1011.1 |
| 20260508061507 | 52 | 15 | 2.0 | 11.0 | 0.00 | 0.20 | 0.00 | 60 | 1011.0 |
| 20260508060319 | 52 | 302 | 2.0 | 5.0 | 0.00 | 0.20 | 0.00 | 71 | 1010.8 |
| 20260508060010 | 52 | 261 | 1.0 | 5.0 | 0.00 | 0.26 | 0.00 | 75 | 1010.8 |
| 20260508054523 | 51 | 262 | 0.0 | 1.0 | 0.00 | 0.26 | 0.00 | 78 | 1010.1 |